Flag for Germany Weather for the Past 2 Weeks in Oberursel (Taunus), Hesse, Germany

Now
50 °F

Light rain. Partly cloudy.


Feels Like: 44 °F
Forecast: 41 / 59 °F
Wind: 16 mph from North

Location: Frankfurt-M-Flughafen Airport

Current Time: Apr 30, 2016 at 11:32:40 PM

Latest Report: Apr 30, 2016 at 10:50 PM


Visibility: N/A

Pressure: 30.04 "Hg

Humidity: 67%

Dew Point: 39 °F

Location of Oberursel (Taunus)Location

Historic Weather in Oberursel (Taunus) — Graph

°F

Oberursel (Taunus) Temperature Yesterday

Maximum temperature yesterday: 57 °F (at 6:20 PM)
Minimum temperature yesterday: 30 °F (at 3:50 AM)
Average temperature yesterday: 45 °F

High & Low Weather Summary for the Past Weeks

 TemperatureHumidityPressure
High70 °F (Apr 21, 4:50 PM)100% (Apr 16, 8:20 AM)30.45 "Hg (Apr 16, 8:20 AM)
Low30 °F (Apr 24, 4:50 AM)22% (Apr 20, 5:50 PM)29.56 "Hg (Apr 26, 12:20 AM)
Average47 °F64%29.97 "Hg
* Reported Apr 15 10:20 PM — Apr 30 10:20 PM, Oberursel (Taunus), Weather by CustomWeather, © 2016

Note: Actual official high and low records may vary slightly from our data, if they occured in-between our weather recording intervals... More about our weather records

Advertising

Oberursel (Taunus) Weather History for the Previous 24 Hours

Scroll right to see more
 ConditionsComfort  
Time TempWeatherWind HumidityBarometerVisibility
10:20 PM
Sat, Apr 30
52 °FLight rain. Passing clouds.16 mph62%30.01 "HgN/A
9:50 PM52 °FLight rain. Partly cloudy.17 mph62%30.01 "HgN/A
9:20 PM54 °FLight rain. Broken clouds.18 mph58%30.01 "HgN/A
8:50 PM55 °FLight rain. Broken clouds.16 mph55%30.01 "HgN/A
8:20 PM55 °FLight rain. Broken clouds.18 mph55%29.98 "HgN/A
7:50 PM55 °FBroken clouds.17 mph59%29.98 "HgN/A
7:20 PM55 °FPartly sunny.16 mph59%29.98 "HgN/A
6:50 PM57 °FScattered showers. Scattered clouds.18 mph55%29.98 "HgN/A
6:20 PM57 °FScattered showers. Scattered clouds.16 mph55%29.98 "HgN/A
5:50 PM59 °FPassing clouds.14 mph51%29.98 "HgN/A
5:20 PM59 °FPassing clouds.13 mph48%29.98 "HgN/A
4:50 PM61 °FPassing clouds.5 mph31%29.98 "HgN/A
4:20 PM61 °FSunny.5 mph34%29.98 "Hg10 mi
3:50 PM61 °FPassing clouds.7 mph34%29.98 "HgN/A
3:20 PM61 °FPassing clouds.8 mph36%29.98 "HgN/A
2:50 PM61 °FPassing clouds.5 mph34%29.98 "HgN/A
2:20 PM61 °FSunny.5 mph36%30.01 "Hg10 mi
1:50 PM59 °FPassing clouds.8 mph39%30.01 "HgN/A
1:20 PM61 °FSunny.5 mph36%30.01 "Hg10 mi
12:50 PM59 °FPassing clouds.5 mph39%30.01 "HgN/A
12:20 PM57 °FPassing clouds.7 mph41%30.01 "HgN/A
11:50 AM57 °FPassing clouds.6 mph41%30.01 "HgN/A
11:20 AM55 °FBroken clouds.2 mph47%30.01 "HgN/A
10:20 AM52 °FSunny.3 mph54%30.04 "Hg10 mi
9:50 AM50 °FPassing clouds.3 mph58%30.04 "HgN/A
9:20 AM48 °FPassing clouds.3 mph62%30.04 "HgN/A
8:50 AM46 °FSunny.1 mph66%30.04 "Hg10 mi
8:20 AM45 °FSunny.1 mph71%30.04 "Hg10 mi
7:50 AM43 °FSunny.2 mph76%30.04 "Hg10 mi
7:20 AM39 °FSunny.2 mph87%30.04 "Hg10 mi
6:50 AM36 °FClear.2 mph93%30.04 "Hg10 mi
6:20 AM36 °FPassing clouds.6 mph87%30.01 "HgN/A
5:50 AM36 °FClear.2 mph87%30.01 "Hg10 mi
5:20 AM37 °FClear.3 mph87%30.01 "Hg10 mi
4:20 AM39 °FClear.6 mph81%30.01 "Hg10 mi
3:50 AM43 °FClear.3 mph76%30.01 "Hg10 mi
3:20 AM43 °FClear.2 mph76%30.01 "Hg10 mi
2:50 AM43 °FClear.1 mph76%30.01 "Hg10 mi
1:50 AM41 °FClear.1 mph76%30.04 "Hg10 mi
1:20 AM41 °FClear.1 mph70%30.04 "Hg10 mi
12:50 AM41 °FClear.1 mph70%30.04 "Hg10 mi
12:20 AM41 °FPassing clouds.3 mph70%30.01 "HgN/A
11:50 PM
Fri, Apr 29
43 °FClear.3 mph66%30.01 "Hg10 mi
11:20 PM45 °FClear.3 mph61%30.04 "Hg10 mi
Weather by CustomWeather, © 2016

See weather overviewHow to use our weather pages